DateTimeUTC,F1_A11,F1_S11,BsB_S11,BsG_S11,BsR_S11,BbsB_S11,BbsG_S11,BbsR_S11,BaB_A11,BaG_A11,BaR_A11,Tu_S11,T_S11,Uu_S11,U_S11,P_S11,T1_A11
2021-06-09T01:00:00Z,00000200,20000000,,,,,,,0000.07,0000.03,0000.25,17.0,24.1,03.3,02.1,0669.2,30.9
2021-06-09T01:01:00Z,00000200,20000000,,,,,,,-000.15,0000.03,0000.38,16.9,24.1,03.0,01.9,0669.2,30.9
2021-06-09T01:02:00Z,00000200,20000000,,,,,,,-000.10,-000.38,-000.63,16.9,24.1,03.0,01.9,0669.2,30.9
2021-06-09T01:03:00Z,00000200,60000000,,,,,,,-000.12,0000.23,0000.25,16.9,24.1,03.0,01.9,0669.2,30.9
2021-06-09T01:04:00Z,00000200,40000000,-000.12,0000.15,-000.01,0000.31,-000.05,0000.32,0000.29,-000.15,0000.07,17.1,23.9,03.0,01.9,0670.1,31.0
2021-06-09T01:05:00Z,00000200,00000000,0000.52,0000.29,0000.21,0000.71,-000.05,-000.08,0000.24,0000.20,0000.19,17.1,23.8,03.1,02.0,0670.2,30.9
2021-06-09T01:06:00Z,00000200,00000000,0000.44,0000.46,0000.27,0000.26,0000.42,0000.14,-000.17,0000.17,-000.23,17.1,23.8,03.0,02.0,0670.2,30.9
2021-06-09T01:07:00Z,00000200,00000000,0000.56,-000.10,0000.13,0000.71,-000.24,0000.10,0000.18,-000.10,0000.38,17.1,23.8,03.0,02.0,0670.2,30.9
2021-06-09T01:08:00Z,00000200,00000000,0000.49,0000.36,-000.02,-000.01,0000.07,0000.05,-000.21,-000.16,-000.33,17.1,23.8,02.8,01.9,0670.2,30.9
2021-06-09T01:09:00Z,00000200,00000000,-000.64,0000.21,0000.21,0000.01,0000.05,-000.01,0000.11,0000.42,0000.04,17.1,23.8,03.0,02.0,0670.2,30.9
2021-06-09T01:10:00Z,00000200,00000000,0000.51,0000.44,0000.37,0000.29,0000.06,0000.39,-000.24,-000.16,0000.38,17.0,23.8,02.9,01.9,0670.2,30.9
2021-06-09T01:11:00Z,00000200,00000000,-000.27,0000.38,0000.44,0000.12,0000.10,0000.22,0000.31,0000.52,-000.21,17.0,23.8,03.0,02.0,0670.2,30.9
2021-06-09T01:12:00Z,00000200,00000000,-000.32,0000.14,0000.21,0000.08,0000.17,0000.18,0000.48,-000.43,0000.14,17.0,23.7,02.9,01.9,0670.2,30.9
2021-06-09T01:13:00Z,00000200,00000000,0000.61,0000.14,-000.04,-000.15,0000.07,0000.02,-000.01,0000.43,0000.21,17.0,23.7,02.9,01.9,0670.2,30.9
2021-06-09T01:14:00Z,00000200,00000000,0000.34,0000.07,0000.08,0000.49,0000.06,0000.14,0000.01,-000.18,-000.08,17.0,23.7,02.9,01.9,0670.2,30.9
2021-06-09T01:15:00Z,00000200,00000000,0000.30,0000.30,0000.32,0000.24,0000.34,0000.24,-000.03,0000.23,0000.07,17.0,23.7,03.0,02.0,0670.3,30.9
2021-06-09T01:16:00Z,00000200,00000000,-000.11,-000.13,0000.12,0000.19,-000.02,0000.19,0000.10,-000.26,0000.27,17.0,23.7,02.9,01.9,0670.3,30.9
2021-06-09T01:17:00Z,00000200,00000000,0000.49,0000.02,0000.35,0000.32,0000.11,0000.31,0000.36,0000.33,0000.10,17.0,23.7,02.9,01.9,0670.3,30.9
2021-06-09T01:18:00Z,00000200,00000000,0000.18,0000.44,0000.25,0000.26,0000.10,0000.24,-000.09,0000.03,0000.05,17.0,23.7,02.9,01.9,0670.3,30.9
2021-06-09T01:19:00Z,00000200,00000000,0000.58,0000.47,0000.22,0000.64,-000.12,0000.21,0000.35,-000.04,-000.09,16.9,23.7,02.9,01.9,0670.3,30.9
2021-06-09T01:20:00Z,00000200,00000000,0000.78,0000.08,0000.06,0000.34,0000.37,0000.05,0000.56,0000.56,0000.55,16.9,23.7,03.0,02.0,0670.3,30.9
2021-06-09T01:21:00Z,00000200,00000000,0000.12,-000.20,0000.19,-000.13,0000.24,0000.17,0000.11,0000.61,-000.08,16.9,23.6,03.1,02.0,0670.3,30.9
2021-06-09T01:22:00Z,00000200,00000000,-000.38,0000.31,-000.15,0000.32,0000.44,-000.07,0000.23,0000.04,0000.21,16.9,23.6,03.1,02.1,0670.3,30.9
2021-06-09T01:23:00Z,00000200,00000000,0000.37,0000.27,0000.09,0000.09,0000.25,0000.09,0000.66,0000.89,0001.00,16.9,23.6,03.3,02.2,0670.3,30.9
2021-06-09T01:24:00Z,00000200,00000000,0000.95,0000.16,0000.29,0000.22,0000.21,0000.14,0000.42,0000.06,0000.11,17.0,23.6,03.5,02.3,0670.3,30.9
2021-06-09T01:25:00Z,00000200,00000000,-000.25,0000.22,0000.28,0000.37,0000.04,-000.04,0000.48,0000.35,0000.02,17.0,23.6,03.5,02.3,0670.3,30.9
2021-06-09T01:26:00Z,00000200,00000000,0000.34,0000.23,0000.26,-000.01,0000.12,0000.34,0000.15,0000.54,0000.24,17.1,23.7,03.6,02.4,0670.3,30.9
2021-06-09T01:27:00Z,00000200,00000000,0000.60,-000.09,-000.17,0000.23,0000.03,0000.43,0000.14,0000.20,0000.31,17.1,23.7,03.6,02.4,0670.3,30.9
2021-06-09T01:28:00Z,00000200,00000000,0000.24,0000.45,0000.38,0000.66,0000.05,0000.30,0000.34,0000.29,0000.31,17.1,23.6,03.8,02.5,0670.3,30.9
2021-06-09T01:29:00Z,00000200,00000000,-000.25,0000.04,0000.18,0000.51,0000.01,0000.21,0000.00,0000.14,0000.07,17.1,23.7,03.8,02.5,0670.3,30.9
2021-06-09T01:30:00Z,00000200,00000000,0000.73,0000.24,0000.42,0000.12,-000.02,0000.04,0000.81,0000.24,-000.08,17.1,23.7,03.9,02.6,0670.3,30.9
2021-06-09T01:31:00Z,00000200,00000000,-000.44,0000.16,0000.03,0000.06,0000.16,0000.05,-000.08,0000.12,0000.34,17.1,23.7,04.0,02.6,0670.3,30.9
2021-06-09T01:32:00Z,00000200,00000000,0000.30,0000.13,0000.19,-000.21,0000.10,0000.20,0000.41,0000.17,0000.10,17.1,23.6,04.1,02.7,0670.2,30.9
2021-06-09T01:33:00Z,00000200,00000000,0000.40,0000.25,0000.26,0000.43,0000.06,0000.22,0000.41,0000.48,0000.25,17.1,23.6,04.3,02.9,0670.2,30.9
2021-06-09T01:34:00Z,00000200,00000000,-000.04,0000.20,0000.07,0000.93,-000.03,0000.08,0000.49,0000.10,0000.41,17.1,23.6,04.4,02.9,0670.2,30.9
2021-06-09T01:35:00Z,00000200,00000000,-000.18,0000.41,0000.06,0000.83,0000.37,0000.07,0000.04,0000.41,0000.15,17.0,23.6,04.4,03.0,0670.2,30.9
2021-06-09T01:36:00Z,00000200,00000000,0000.48,0000.26,0000.12,0000.11,0000.10,0000.38,0000.08,0000.22,0000.23,17.0,23.6,04.6,03.1,0670.2,30.9
2021-06-09T01:37:00Z,00000200,00000000,0000.62,0000.36,0000.35,0000.66,0000.00,0000.47,0000.46,0000.39,0000.17,17.0,23.6,04.8,03.2,0670.2,30.9
2021-06-09T01:38:00Z,00000200,00000000,0000.16,-000.01,0000.28,0000.39,-000.01,0000.25,0000.04,0000.06,0000.18,17.0,23.6,04.8,03.2,0670.2,30.9
2021-06-09T01:39:00Z,00000200,00000000,-000.12,0000.06,-000.05,-000.13,-000.00,-000.05,0000.54,0000.53,0000.37,17.0,23.6,04.9,03.3,0670.2,30.9
2021-06-09T01:40:00Z,00000200,00000000,-000.10,0000.04,0000.16,0000.94,0000.15,-000.30,-000.07,0000.03,-000.20,17.0,23.5,04.9,03.3,0670.2,30.9
2021-06-09T01:41:00Z,00000200,00000000,0000.56,-000.08,0000.05,0000.54,0000.03,0000.06,0000.47,0000.31,0000.58,17.0,23.5,05.1,03.4,0670.2,30.9
2021-06-09T01:42:00Z,00000200,00000000,-000.18,0000.09,0000.09,0000.38,0000.06,0000.23,0000.22,0000.45,0000.14,17.0,23.5,05.2,03.4,0670.2,30.9
2021-06-09T01:43:00Z,00000200,00000000,0000.17,0000.10,0000.25,0000.62,0000.20,-000.09,-000.05,0000.17,-000.00,17.0,23.5,05.2,03.5,0670.2,30.9
2021-06-09T01:44:00Z,00000200,00000000,0000.10,0000.07,0000.16,0000.29,-000.02,0000.08,0000.90,0000.42,0000.18,17.0,23.5,05.2,03.5,0670.1,30.9
2021-06-09T01:45:00Z,00000200,00000000,0000.36,0000.27,0000.33,0000.35,0000.23,0000.06,0000.20,0000.00,0000.47,17.0,23.5,05.3,03.5,0670.1,30.9
2021-06-09T01:46:00Z,00000200,00000000,0000.21,0000.05,0000.05,0000.49,-000.01,0000.31,-000.14,-000.33,-000.45,17.0,23.5,05.4,03.6,0670.1,30.9
2021-06-09T01:47:00Z,00000200,00000000,0000.23,0000.07,-000.05,0000.19,0000.10,-000.01,0000.33,0000.80,0000.43,17.0,23.5,05.4,03.6,0670.1,30.9
2021-06-09T01:48:00Z,00000200,00000000,0000.45,0000.23,0000.22,0000.20,0000.42,0000.41,0000.33,0000.17,0000.09,16.9,23.5,05.5,03.7,0670.0,30.9
2021-06-09T01:49:00Z,00000200,00000000,-000.23,0000.28,0000.33,0000.48,0000.21,0000.33,-000.18,-000.09,0000.20,16.9,23.4,05.6,03.7,0670.0,30.9
2021-06-09T01:50:00Z,00000200,00000000,0000.88,0000.17,0000.05,0000.95,0000.34,0000.18,-000.16,0000.07,-000.24,16.9,23.5,05.5,03.7,0670.0,30.9
2021-06-09T01:51:00Z,00000200,00000000,0000.52,0000.40,0000.46,0000.94,0000.25,0000.34,0000.15,-000.12,-000.04,16.9,23.4,05.4,03.6,0670.0,30.9
2021-06-09T01:52:00Z,00000200,00000000,0000.06,0000.11,0000.43,0000.01,0000.25,-000.04,0000.12,0000.39,0000.38,16.9,23.4,05.3,03.5,0670.1,30.9
2021-06-09T01:53:00Z,00000200,00000000,0000.22,0000.20,0000.08,0000.14,0000.02,0000.31,0000.23,0000.03,0000.14,16.9,23.4,05.2,03.5,0670.0,30.9
2021-06-09T01:54:00Z,00000200,00000000,0000.08,0000.37,0000.16,0000.68,-000.04,0000.26,0000.08,0000.10,0000.11,16.9,23.4,05.2,03.5,0670.1,30.9
2021-06-09T01:55:00Z,00000200,00000000,0000.44,0000.44,0000.32,0000.38,0000.27,0000.28,0000.39,0000.48,0000.05,17.0,23.5,05.2,03.5,0670.1,30.9
2021-06-09T01:56:00Z,00000200,00000000,0000.46,0000.39,-000.07,-000.07,0000.28,-000.02,0000.01,0000.07,0000.28,17.1,23.5,05.1,03.4,0670.1,30.9
2021-06-09T01:57:00Z,00000200,40000000,,,,,,,-000.61,-000.60,-000.86,17.2,23.6,04.9,03.3,0670.0,31.0
2021-06-09T01:58:00Z,00000200,60000000,,,,,,,0000.36,-000.18,0000.48,17.1,23.8,04.9,03.2,0669.2,31.0
2021-06-09T01:59:00Z,00000200,20000000,,,,,,,0000.12,0000.70,0000.22,17.1,23.9,04.9,03.2,0669.1,31.0
